Tiempo Historia de Bogota, Colombia

Change the Weather History Date:

Miércoles, Febrero 22, 2012

  Actual Average Record
Temperature  
Temperatura media 52 ° F -  
Temperatura máxima 63 ° F 65 ° F 71 ° F (1997)
Temperatura mínima 40 ° F 45 ° F 39 ° F (2012)
Degree Days  
Grados día de calefacción 14    
Growing Degree Days 2 (Base 50)    
Moisture  
Punto de rocío 44 ° F    
Average Humidity 78    
Maximum Humidity 100    
Minimum Humidity 42    
Precipitación  
Precipitación 0.00 pul 0.08 pul - ()
Presión al nivel del mar  
Presión al nivel del mar 30.27 pul    
Viento  
Velocidad del viento 4 mph ()    
Velocidad máxima del viento 14 mph    
Max Gust Speed -    
Visibilidad 5.5 Millas    
Eventos Niebla    
Averages and records for this station are not official NWS values.
T = Trace of Precipitation, MM = Missing Value Source: Averaged Metar Reports

Daily Weather History Graph

Daily Weather History Graph

Search for Another Location

Airport:

Trip Planner

Search our weather history database for the weather conditions in past years. The results will help you decide how hot, cold, wet, or windy it might be!

Date:

Astronomía

Feb. 22, 2012 Salida Puesta
Hora real 6:10 AM COT 6:10 PM COT
Crepúsculo civil 5:49 AM COT 6:31 PM COT
Crepúsculo náutico 5:24 AM COT 6:55 PM COT
Crepúsculo astronómico 5:00 AM COT 7:20 PM COT
Luna 6:27 AM COT 6:47 PM COT
Horas de luz 12h 42m
Horas de luz
11h 59m
Luna nueva, 1% of the Moon is Illuminated
Feb 22
Luna nueva
Feb 29
Cuarto creciente
Mar 8
Luna llena
Mar 14
Cuarto menguante
Mar 22
Nueva

Hourly Weather History & Observations

Hora (COT) Temp. Vientos helados Punto de rocío Humedad Presión Visibilidad Wind Dir Velocidad del viento Velocidad de ráfagas Precip Eventos Condiciones
12:00 AM 50.0 ° F - 46.4 ° F 87% 30.32 pul 6.2 mi NNE 3.5 mph - N/A   Parcialmente nublado
1:00 AM 47 ° F - 45 ° F 88%  pul 11 mi NO 4.5 mph - -   Bruma
1:00 AM 46.4 ° F 45.2 ° F 46.4 ° F 100% 30.31 pul 6.2 mi NNO 3.5 mph - N/A   Parcialmente nublado
2:00 AM 46.4 ° F 45.2 ° F 44.6 ° F 93% 30.28 pul 6.2 mi NNE 3.5 mph - N/A   Desconocido
3:00 AM 42.8 ° F - 41.0 ° F 93% 30.26 pul 6.2 mi Variable 2.3 mph - N/A   Desconocido
4:00 AM 42 ° F - 41 ° F 93%  pul 10 mi Oeste 2.2 mph - -   Bruma
4:00 AM 42.8 ° F - 41.0 ° F 93% 30.25 pul 6.2 mi Variable 2.3 mph - N/A   Desconocido
5:00 AM 41.0 ° F 39.0 ° F 41.0 ° F 100% 30.26 pul 6.2 mi NE 3.5 mph - N/A Niebla Niebla ligera
5:18 AM 39.2 ° F 35.0 ° F 39.2 ° F 100% 30.26 pul 6.2 mi NNE 5.8 mph - N/A Niebla Bancos de niebla
5:30 AM 39.2 ° F 35.0 ° F 39.2 ° F 100% 30.26 pul 6.2 mi NE 5.8 mph - N/A Niebla Bancos de niebla
5:45 AM 39.2 ° F 35.0 ° F 39.2 ° F 100% 30.27 pul 6.2 mi NE 5.8 mph - N/A Niebla Bancos de niebla
6:00 AM 41.0 ° F 36.4 ° F 41.0 ° F 100% 30.28 pul 0.1 mi NE 6.9 mph - N/A Niebla Niebla
6:15 AM 41.0 ° F 36.4 ° F 41.0 ° F 100% 30.28 pul 0.1 mi NE 6.9 mph - N/A Niebla Niebla
6:40 AM 42.8 ° F 41.1 ° F 42.8 ° F 100% 30.29 pul 0.1 mi NNE 3.5 mph - N/A Niebla Niebla
7:00 AM 44 ° F - 44 ° F 98%  pul 0 mi NNE 6.7 mph - - Niebla Abundante niebla
7:00 AM 44.6 ° F 41.4 ° F 44.6 ° F 100% 30.29 pul 0.1 mi NNE 5.8 mph - N/A Niebla Niebla
7:30 AM 44.6 ° F - 44.6 ° F 100% 30.30 pul 0.5 mi Variable 2.3 mph - N/A Niebla Niebla
7:45 AM 46.4 ° F 44.3 ° F 44.6 ° F 93% 30.31 pul 3.1 mi NE 4.6 mph - N/A   Nubes dispersas
8:00 AM 46.4 ° F 44.3 ° F 46.4 ° F 100% 30.31 pul 3.1 mi NNE 4.6 mph - N/A   Nubes dispersas
9:00 AM 51.8 ° F - 48.2 ° F 88% 30.32 pul 3.7 mi NE 5.8 mph - N/A   Nubes dispersas
10:00 AM 57 ° F - 45 ° F 54%  pul 1 mi NO 2.2 mph - -   Bruma
10:00 AM 57.2 ° F - 44.6 ° F 63% 30.31 pul 6.2 mi Variable 2.3 mph - N/A   Muy nublado
11:00 AM 59.0 ° F - 46.4 ° F 63% 30.30 pul 6.2 mi NNE 3.5 mph - N/A   Nubes dispersas
12:00 PM 62.6 ° F - 44.6 ° F 52% 30.28 pul 6.2 mi SE 9.2 mph - N/A   Muy nublado
1:00 PM 62 ° F - 45 ° F 43%  pul 9 mi SSE 8.9 mph - -   Bruma
1:00 PM 62.6 ° F - 44.6 ° F 52% 30.26 pul 6.2 mi SSE 9.2 mph - N/A   Muy nublado
2:00 PM 62.6 ° F - 44.6 ° F 52% 30.23 pul 6.2 mi SE 10.4 mph - N/A   Muy nublado
3:00 PM 62.6 ° F - 44.6 ° F 52% 30.21 pul 6.2 mi ESE 13.8 mph - N/A   Muy nublado
4:00 PM 62 ° F - 45 ° F 42%  pul 11 mi ENE 8.9 mph - -   Bruma
4:00 PM 62.6 ° F - 44.6 ° F 52% 30.19 pul 6.2 mi ENE 8.1 mph - N/A   Nubes dispersas
5:00 PM 62.6 ° F - 44.6 ° F 52% 30.18 pul 6.2 mi NNE 9.2 mph - N/A   Muy nublado
6:00 PM 57.2 ° F - 44.6 ° F 63% 30.20 pul 6.2 mi NE 6.9 mph - N/A   Nubes dispersas
7:00 PM 56 ° F - 45 ° F 56%  pul 11 mi NE 4.5 mph - -   Bruma
7:00 PM 57.2 ° F - 44.6 ° F 63% 30.22 pul 6.2 mi NE 3.5 mph - N/A   Parcialmente nublado
8:00 PM 57.2 ° F - 44.6 ° F 63% 30.24 pul 6.2 mi NNE 4.6 mph - N/A   Nubes dispersas
9:00 PM 53.6 ° F - 44.6 ° F 72% 30.27 pul 6.2 mi Variable 2.3 mph - N/A   Nubes dispersas
10:00 PM 52 ° F - 44 ° F 66%  pul 10 mi NNE 4.5 mph - -   Bruma
10:00 PM 51.8 ° F - 44.6 ° F 76% 30.29 pul 6.2 mi NE 3.5 mph - N/A   Parcialmente nublado
11:00 PM 51.8 ° F - 44.6 ° F 76% 30.29 pul 6.2 mi Norte 3.5 mph - N/A   Parcialmente nublado